TimeEST,TemperatureF,Dew PointF,Humidity,Sea Level PressureIn,VisibilityMPH,Wind Direction,Wind SpeedMPH,Gust SpeedMPH,PrecipitationIn,Events,Conditions,WindDirDegrees,DateUTC
12:54 AM,25.0,12.9,60,30.33,10.0,Calm,Calm,-,N/A,,Clear,0,2013-12-01 05:54:00
1:54 AM,25.0,12.9,60,30.33,10.0,Calm,Calm,-,N/A,,Mostly Cloudy,0,2013-12-01 06:54:00
2:54 AM,24.1,15.1,69,30.31,10.0,Calm,Calm,-,N/A,,Overcast,0,2013-12-01 07:54:00
3:54 AM,23.0,15.1,72,30.27,10.0,Calm,Calm,-,N/A,,Partly Cloudy,0,2013-12-01 08:54:00
4:54 AM,23.0,16.0,74,30.26,10.0,Calm,Calm,-,N/A,,Partly Cloudy,0,2013-12-01 09:54:00
5:54 AM,21.9,15.1,75,30.25,9.0,Calm,Calm,-,N/A,,Mostly Cloudy,0,2013-12-01 10:54:00
6:54 AM,23.0,17.1,78,30.25,10.0,Calm,Calm,-,N/A,,Overcast,0,2013-12-01 11:54:00
7:54 AM,23.0,17.1,78,30.25,10.0,Calm,Calm,-,N/A,,Mostly Cloudy,0,2013-12-01 12:54:00
8:54 AM,25.0,19.0,78,30.24,10.0,Calm,Calm,-,N/A,,Overcast,0,2013-12-01 13:54:00
9:54 AM,27.0,19.9,75,30.23,10.0,Calm,Calm,-,N/A,,Clear,0,2013-12-01 14:54:00
10:54 AM,28.9,21.0,72,30.20,10.0,Calm,Calm,-,N/A,,Partly Cloudy,0,2013-12-01 15:54:00
11:54 AM,32.0,21.9,66,30.18,10.0,Calm,Calm,-,0.03,,Overcast,0,2013-12-01 16:54:00
12:54 PM,33.1,23.0,66,30.15,10.0,Calm,Calm,-,0.02,,Overcast,0,2013-12-01 17:54:00
1:54 PM,33.1,24.1,70,30.14,10.0,Calm,Calm,-,0.01,,Overcast,0,2013-12-01 18:54:00
2:54 PM,34.0,24.1,67,30.14,10.0,Calm,Calm,-,0.02,,Overcast,0,2013-12-01 19:54:00
3:30 PM,33.8,26.6,75,30.11,1.8,Calm,Calm,-,0.00,Snow,Light Snow,0,2013-12-01 20:30:00
3:39 PM,32.0,26.6,80,30.11,1.2,Calm,Calm,-,0.00,Snow,Light Snow,0,2013-12-01 20:39:00
3:54 PM,32.0,27.0,82,30.14,1.0,Calm,Calm,-,0.00,Snow,Light Snow,0,2013-12-01 20:54:00
4:05 PM,32.0,28.4,87,30.11,1.2,Calm,Calm,-,0.00,Snow,Light Snow,0,2013-12-01 21:05:00
4:17 PM,32.0,28.4,87,30.11,2.5,Calm,Calm,-,0.00,Snow,Light Snow,0,2013-12-01 21:17:00
4:30 PM,30.2,28.4,93,30.11,1.8,Calm,Calm,-,0.00,Snow,Light Snow,0,2013-12-01 21:30:00
4:54 PM,30.9,28.0,89,30.15,1.8,Calm,Calm,-,0.00,Snow,Light Snow,0,2013-12-01 21:54:00
5:54 PM,30.9,28.9,92,30.14,2.0,Calm,Calm,-,0.00,Snow,Light Snow,0,2013-12-01 22:54:00
6:18 PM,30.2,28.4,93,30.10,1.8,Calm,Calm,-,0.00,Snow,Light Snow,0,2013-12-01 23:18:00
6:31 PM,30.2,28.4,93,30.10,1.5,Calm,Calm,-,0.00,Snow,Light Snow,0,2013-12-01 23:31:00
6:39 PM,30.2,28.4,93,30.10,1.8,Calm,Calm,-,0.00,Snow,Light Snow,0,2013-12-01 23:39:00
6:54 PM,30.9,28.9,92,30.14,1.8,Calm,Calm,-,0.00,Snow,Light Snow,0,2013-12-01 23:54:00
7:05 PM,30.2,28.4,93,30.10,2.0,Calm,Calm,-,0.00,Snow,Light Snow,0,2013-12-02 00:05:00
7:25 PM,30.2,28.4,93,30.09,3.0,Calm,Calm,-,0.00,Snow,Light Snow,0,2013-12-02 00:25:00
7:35 PM,30.2,28.4,93,30.09,2.0,Calm,Calm,-,0.00,Snow,Light Snow,0,2013-12-02 00:35:00
7:41 PM,30.2,28.4,93,30.09,1.8,Calm,Calm,-,0.00,Snow,Light Snow,0,2013-12-02 00:41:00
7:51 PM,30.2,28.4,93,30.09,0.8,Calm,Calm,-,0.00,,Overcast,0,2013-12-02 00:51:00
7:54 PM,30.0,28.0,92,30.12,0.5,Calm,Calm,-,0.00,Fog,Light Freezing Fog,0,2013-12-02 00:54:00
8:03 PM,28.4,26.6,93,30.08,1.2,Calm,Calm,-,N/A,,Overcast,0,2013-12-02 01:03:00
8:06 PM,28.4,26.6,93,30.08,3.0,Calm,Calm,-,N/A,,Overcast,0,2013-12-02 01:06:00
8:24 PM,28.4,26.6,93,30.08,2.5,Calm,Calm,-,N/A,,Overcast,0,2013-12-02 01:24:00
8:31 PM,28.4,26.6,93,30.08,1.8,Calm,Calm,-,N/A,,Mostly Cloudy,0,2013-12-02 01:31:00
8:38 PM,26.6,24.8,93,30.08,1.0,Calm,Calm,-,N/A,,Mostly Cloudy,0,2013-12-02 01:38:00
8:43 PM,28.4,24.8,86,30.08,1.5,Calm,Calm,-,N/A,,Mostly Cloudy,0,2013-12-02 01:43:00
8:45 PM,26.6,24.8,93,30.08,2.0,Calm,Calm,-,N/A,,Mostly Cloudy,0,2013-12-02 01:45:00
8:51 PM,28.4,26.6,93,30.08,2.5,Calm,Calm,-,N/A,,Mostly Cloudy,0,2013-12-02 01:51:00
8:54 PM,28.0,26.1,92,30.11,2.5,Calm,Calm,-,N/A,,Overcast,0,2013-12-02 01:54:00
8:59 PM,28.4,26.6,93,30.07,1.0,Calm,Calm,-,N/A,,Overcast,0,2013-12-02 01:59:00
9:06 PM,28.4,26.6,93,30.07,0.2,Calm,Calm,-,N/A,Fog,Light Freezing Fog,0,2013-12-02 02:06:00
9:54 PM,28.0,27.0,96,30.10,0.8,Calm,Calm,-,N/A,,Overcast,0,2013-12-02 02:54:00
9:58 PM,28.4,26.6,93,30.07,1.2,Calm,Calm,-,N/A,,Overcast,0,2013-12-02 02:58:00
10:03 PM,28.4,26.6,93,30.07,3.0,Calm,Calm,-,N/A,,Overcast,0,2013-12-02 03:03:00
10:54 PM,28.9,27.0,92,30.09,4.0,Calm,Calm,-,N/A,,Overcast,0,2013-12-02 03:54:00
11:54 PM,28.9,27.0,92,30.07,4.0,Calm,Calm,-,N/A,,Overcast,0,2013-12-02 04:54:00